Weather in Prykolotne

Ukraine / Kharkiv Region     50°09′38″N   37°21′02″E
temp.,
°C
wind,
m/s
gust,
m/s
humid.,
%
clouds,
%
prec.,
mm/h
press.,
hPa
HPBL,
m
25 february, thu
thu2523:00−8ssw51084100 0.1 1035403
02:00−8ssw5109399 0.3 1033343
05:00−7sw599499 0.2 1031328
08:00−6sw5993100 0.3 1030335
11:00−2wsw61093100 0.1 1029371
14:00−1sw61196100 0.1 1026311
17:00+1wsw61398100 0.1 1024370
20:00+2w51199100 0.4 1023249
26 february, fri
fri2623:00+2w51199100 0.1 1023247
02:00+2wnw51198100 0.2 1022251
05:00+3wnw51099100 0.0 1022232
08:00+2w5109899 0.0 1021312
11:00+3w61198100 0.0 1020412
14:00+3w71298100 0.0 1018474
17:00+3w71397100 0.0 1016466
20:00+3w61198100 0.1 1016354
27 february, sat
sat2723:00+2w51196100 0.0 1014362
02:00+2w5998100 0.0 1014354
05:00+2w51097100 0.0 1012371
08:00+2w51094100 0.1 1011406
11:00+2wnw71094100 0.1 1011683
14:00+1wnw6109498 0.1 1011590
17:00+1wnw5996100 0.1 1011487
20:00+1nw5997100 0.1 1011486
28 february, sun
sun2823:000nw4998100 0.1 1012384
02:000nnw5995100 0.3 1014573
05:00−1nnw5108689 0.1 1015715
08:00−2n587977 0.1 1017627
11:00−1nnw587149 0.0 1018697
14:00−1nnw677467 0.0 1020766
17:00−2n588399 0.0 1021697
20:00−1n577798 0.1 1023870
1 march, mon
mon123:00−2nne4677100 0.0 1025734
02:00−3nne4675100 0.1 1026722
05:00−4n4573100 0.0 1027741
08:00−3n4570100 0.0 1029819
11:00−1nnw456994 0.0 1030858
14:000nw456596 0.0 1030890
17:00−1nw477198 0.0 1029877
20:00−2wnw378194 0.0 1030359